San Angelo, TX

1:41 PM CST on December 10, 2016 (GMT -0600)
San Angelo Regional-Mathis

Weather History for KSJT - November, 2010

Change the Weather History Date:

Saturday, November 13, 2010

  Actual Average Record
Temperature  
Mean Temperature 46 °F 56 °F  
Max Temperature 61 °F 69 °F 87 °F (1924)
Min Temperature 30 °F 43 °F 20 °F (2013)
Degree Days  
Heating Degree Days 19 9  
Month to date heating degree days 81 96  
Since 1 July heating degree days 105 187  
Cooling Degree Days 0 1  
Month to date cooling degree days 1 14  
Year to date cooling degree days 2939 2498  
Moisture  
Dew Point 31 °F    
Average Humidity 59    
Maximum Humidity 89    
Minimum Humidity 29    
Precipitation  
Precipitation 0.00 in 0.03 in 0.24 in (1976)
Month to date precipitation T 0.63  
Year to date precipitation 19.14 19.89  
Snow  
Snow 0.00 in 0.00 in 2.00 in (1976)
Month to date snowfall 0.0 0.1  
Since 1 July snowfall 0.0 0.1  
Snow Depth 0.00 in    
Sea Level Pressure  
Sea Level Pressure 30.25 in    
Wind  
Wind Speed 5 mph (NNE)    
Max Wind Speed 12 mph    
Max Gust Speed 17 mph    
Visibility 10 miles    
Events      
T = Trace of Precipitation, MM = Missing Value Source: NWS Daily Summary

Daily Weather History Graph

Daily Weather History Graph

Search for Another Location

Airport or City:

Trip Planner

Search our weather history database for the weather conditions in past years. The results will help you decide how hot, cold, wet, or windy it might be!

Date:

Astronomy

Nov. 13, 2010 Rise Set
Actual Time 7:07 AM CST 5:44 PM CST
Civil Twilight 6:42 AM CST 6:10 PM CST
Nautical Twilight 6:12 AM CST 6:39 PM CST
Astronomical Twilight 5:44 AM CST 7:08 PM CST
Moon 1:11 PM CST (11/13) No Moon Set
Length of Visible Light 11h 27m
Length of Day
10h 36m
Waxing Crescent, 51% of the Moon is Illuminated
Nov 13
Waxing Crescent
Nov 21
Full
Nov 28
Last Quarter
Dec 5
New
Dec 13
First Quarter

Hourly Weather History & Observations

Time (CST) Temp. Windchill Dew Point Humidity Pressure Visibility Wind Dir Wind Speed Gust Speed Precip Events Conditions
12:51 AM 41.0 °F 35.8 °F 36.0 °F 82% 30.31 in 10.0 mi NW 8.1 mph - N/A   Clear
1:51 AM 39.0 °F - 34.0 °F 82% 30.32 in 10.0 mi Calm Calm - N/A   Clear
2:51 AM 39.2 °F 35.0 °F 35.6 °F 87% 30.33 in 9.0 mi WNW 5.8 mph - N/A   Clear
3:51 AM 37.0 °F 31.6 °F 33.1 °F 86% 30.32 in 10.0 mi NNW 6.9 mph - N/A   Clear
4:51 AM 37.0 °F 31.0 °F 33.1 °F 86% 30.32 in 10.0 mi NNW 8.1 mph - N/A   Clear
5:51 AM 33.8 °F 29.6 °F 30.2 °F 87% 30.33 in 10.0 mi West 4.6 mph - N/A   Clear
6:51 AM 30.0 °F 25.2 °F 26.1 °F 85% 30.35 in 10.0 mi WSW 4.6 mph - N/A   Clear
7:51 AM 33.1 °F - 30.9 °F 92% 30.37 in 10.0 mi Calm Calm - N/A   Clear
8:51 AM 45.0 °F 42.6 °F 39.9 °F 82% 30.36 in 10.0 mi North 4.6 mph - N/A   Clear
9:51 AM 50.0 °F - 37.0 °F 61% 30.34 in 10.0 mi North 8.1 mph - N/A   Clear
10:51 AM 54.0 °F - 36.0 °F 51% 30.32 in 10.0 mi NNE 5.8 mph - N/A   Clear
11:51 AM 55.9 °F - 32.0 °F 40% 30.30 in 10.0 mi Variable 4.6 mph - N/A   Clear
12:51 PM 57.9 °F - 28.9 °F 33% 30.25 in 10.0 mi Variable 3.5 mph - N/A   Clear
1:51 PM 60.1 °F - 28.9 °F 31% 30.21 in 10.0 mi NNE 9.2 mph - N/A   Clear
2:51 PM 61.0 °F - 28.9 °F 30% 30.18 in 10.0 mi Variable 6.9 mph - N/A   Clear
3:51 PM 61.0 °F - 28.9 °F 30% 30.17 in 10.0 mi ENE 6.9 mph - N/A   Clear
4:51 PM 59.0 °F - 30.0 °F 33% 30.15 in 10.0 mi ENE 5.8 mph - N/A   Clear
5:51 PM 54.0 °F - 28.9 °F 38% 30.15 in 10.0 mi East 5.8 mph - N/A   Clear
6:51 PM 48.9 °F - 28.9 °F 46% 30.17 in 10.0 mi ESE 4.6 mph - N/A   Clear
7:51 PM 43.0 °F 40.3 °F 28.0 °F 56% 30.17 in 10.0 mi SSE 4.6 mph - N/A   Clear
8:51 PM 42.1 °F 39.2 °F 30.0 °F 62% 30.16 in 10.0 mi SSE 4.6 mph - N/A   Clear
9:51 PM 41.0 °F 37.1 °F 28.9 °F 62% 30.15 in 10.0 mi South 5.8 mph - N/A   Clear
10:51 PM 41.0 °F 38.0 °F 30.0 °F 65% 30.14 in 10.0 mi SSE 4.6 mph - N/A   Clear
11:51 PM 39.0 °F - 28.9 °F 67% 30.12 in 10.0 mi Calm Calm - N/A   Clear